When you browse on this site, cookies collect data to enhance your experience and personalize the content and advertising you see.
Visit our Privacy Policy to learn more. By continuing to use the site, you agree to this use of cookies and data.
  • In Deutschland
  • Länderverzeichnis
  • Für 7 Tage
  • Wassertemperatur
  • Wetterkarte
  • Widgets
  • user-avatar
    Anmelden

    Stündliche Wetter Kalat

    Heute, 21 Januar, Dienstag

    Zeit Temperatur Niederschläge Wind Luftdruck Luftfeuchtigkeit
    00:00 -17°C° 0.2 mm 2 m/S 464 mmHg 90%
    01:00 -17°C° 0.2 mm 2 m/S 464 mmHg 93%
    02:00 -17°C° 0.2 mm 2 m/S 464 mmHg 96%
    03:00 -18°C° 0.1 mm 2 m/S 464 mmHg 95%
    04:00 -18°C° 0.1 mm 2 m/S 463 mmHg 95%
    05:00 -19°C° 0 mm 2 m/S 462 mmHg 92%
    06:00 -19°C° 0 mm 2 m/S 462 mmHg 91%
    07:00 -19°C° 0 mm 2 m/S 462 mmHg 89%
    08:00 -20°C° 0 mm 2 m/S 462 mmHg 88%
    09:00 -18°C° 0 mm 2 m/S 464 mmHg 84%
    10:00 -16°C° 0 mm 2 m/S 465 mmHg 80%
    11:00 -15°C° 0 mm 3 m/S 466 mmHg 73%
    12:00 -15°C° 0.1 mm 3 m/S 466 mmHg 70%
    13:00 -14°C° 0.1 mm 3 m/S 467 mmHg 67%
    14:00 -14°C° 0.1 mm 3 m/S 467 mmHg 64%
    15:00 -15°C° 0.1 mm 3 m/S 466 mmHg 70%
    16:00 -17°C° 0.1 mm 3 m/S 464 mmHg 76%
    17:00 -19°C° 0.1 mm 3 m/S 463 mmHg 82%
    18:00 -21°C° 0 mm 3 m/S 463 mmHg 83%
    19:00 -22°C° 0 mm 3 m/S 462 mmHg 84%
    20:00 -25°C° 0 mm 4 m/S 462 mmHg 85%
    21:00 -25°C° 0 mm 4 m/S 461 mmHg 85%
    22:00 -26°C° 0 mm 4 m/S 461 mmHg 85%
    23:00 -26°C° 0 mm 4 m/S 461 mmHg 85%

    Morgen, 22 Januar, Mittwoch

    Zeit Temperatur Niederschläge Wind Luftdruck Luftfeuchtigkeit
    00:00 -25°C° 0 mm 3 m/S 461 mmHg 85%
    01:00 -25°C° 0 mm 3 m/S 461 mmHg 85%
    02:00 -26°C° 0 mm 3 m/S 461 mmHg 85%
    03:00 -26°C° 0 mm 3 m/S 461 mmHg 85%
    04:00 -26°C° 0 mm 3 m/S 461 mmHg 85%
    05:00 -26°C° 0 mm 3 m/S 461 mmHg 85%
    06:00 -26°C° 0 mm 3 m/S 462 mmHg 84%
    07:00 -26°C° 0 mm 3 m/S 462 mmHg 84%
    08:00 -26°C° 0 mm 3 m/S 463 mmHg 83%
    09:00 -23°C° 0 mm 3 m/S 465 mmHg 80%
    10:00 -19°C° 0 mm 2 m/S 466 mmHg 77%
    11:00 -16°C° 0 mm 2 m/S 468 mmHg 74%
    12:00 -16°C° 0 mm 2 m/S 469 mmHg 70%
    13:00 -15°C° 0 mm 2 m/S 469 mmHg 66%
    14:00 -12°C° 0 mm 1 m/S 469 mmHg 62%
    15:00 -14°C° 0 mm 1 m/S 467 mmHg 69%
    16:00 -16°C° 0 mm 1 m/S 466 mmHg 76%
    17:00 -18°C° 0 mm 1 m/S 464 mmHg 83%
    18:00 -20°C° 0 mm 1 m/S 463 mmHg 82%
    19:00 -21°C° 0 mm 1 m/S 463 mmHg 82%
    20:00 -22°C° 0 mm 1 m/S 462 mmHg 81%
    21:00 -23°C° 0 mm 1 m/S 462 mmHg 76%
    22:00 -23°C° 0 mm 1 m/S 462 mmHg 70%
    23:00 -23°C° 0 mm 1 m/S 461 mmHg 65%

    übermorgen, 23 Januar, Donnerstag

    Zeit Temperatur Niederschläge Wind Luftdruck Luftfeuchtigkeit
    00:00 -24°C° 0 mm 1 m/S 461 mmHg 56%
    01:00 -24°C° 0 mm 1 m/S 461 mmHg 48%
    02:00 -24°C° 0 mm 1 m/S 461 mmHg 40%
    03:00 -24°C° 0 mm 1 m/S 461 mmHg 34%
    04:00 -24°C° 0 mm 1 m/S 460 mmHg 27%
    05:00 -24°C° 0 mm 1 m/S 460 mmHg 21%
    06:00 -24°C° 0 mm 1 m/S 461 mmHg 19%
    07:00 -23°C° 0 mm 1 m/S 461 mmHg 18%
    08:00 -23°C° 0 mm 1 m/S 462 mmHg 17%
    09:00 -20°C° 0 mm 1 m/S 464 mmHg 22%
    10:00 -17°C° 0 mm 1 m/S 466 mmHg 28%
    11:00 -14°C° 0 mm 1 m/S 468 mmHg 34%
    12:00 -13°C° 0 mm 1 m/S 468 mmHg 37%
    13:00 -12°C° 0 mm 1 m/S 468 mmHg 40%
    14:00 -11°C° 0 mm 1 m/S 468 mmHg 43%
    15:00 -12°C° 0 mm 1 m/S 467 mmHg 48%
    16:00 -13°C° 0 mm 1 m/S 466 mmHg 54%
    17:00 -14°C° 0 mm 1 m/S 465 mmHg 60%
    18:00 -14°C° 0 mm 1 m/S 465 mmHg 63%
    19:00 -17°C° 0 mm 2 m/S 465 mmHg 66%
    20:00 -17°C° 0 mm 2 m/S 465 mmHg 69%
    21:00 -18°C° 0 mm 2 m/S 465 mmHg 70%
    22:00 -18°C° 0 mm 2 m/S 465 mmHg 71%
    23:00 -18°C° 0 mm 2 m/S 464 mmHg 73%

    24 Januar, Freitag

    Zeit Temperatur Niederschläge Wind Luftdruck Luftfeuchtigkeit
    00:00 -19°C° 0 mm 2 m/S 464 mmHg 70%
    01:00 -19°C° 0 mm 2 m/S 464 mmHg 67%
    02:00 -21°C° 0 mm 3 m/S 463 mmHg 65%
    03:00 -19°C° 0 mm 3 m/S 464 mmHg 64%
    04:00 -19°C° 0 mm 3 m/S 464 mmHg 63%
    05:00 -18°C° 0 mm 3 m/S 464 mmHg 61%
    06:00 -17°C° 0 mm 3 m/S 465 mmHg 66%
    07:00 -16°C° 0 mm 3 m/S 465 mmHg 71%
    08:00 -15°C° 0 mm 3 m/S 466 mmHg 76%
    09:00 -15°C° 0.3 mm 4 m/S 467 mmHg 79%
    10:00 -12°C° 0.3 mm 4 m/S 468 mmHg 81%
    11:00 -11°C° 0.3 mm 4 m/S 469 mmHg 84%
    12:00 -10°C° 0.3 mm 4 m/S 469 mmHg 84%
    13:00 -10°C° 0.3 mm 4 m/S 469 mmHg 85%
    14:00 -9°C° 0.3 mm 4 m/S 469 mmHg 85%
    15:00 -10°C° 0.4 mm 4 m/S 469 mmHg 86%
    16:00 -9°C° 0.4 mm 3 m/S 468 mmHg 88%
    17:00 -10°C° 0.4 mm 3 m/S 468 mmHg 89%
    18:00 -12°C° 0.2 mm 3 m/S 468 mmHg 89%
    19:00 -13°C° 0.2 mm 3 m/S 468 mmHg 90%
    20:00 -14°C° 0.2 mm 3 m/S 468 mmHg 90%
    21:00 -14°C° 0.1 mm 3 m/S 468 mmHg 91%
    22:00 -13°C° 0.1 mm 2 m/S 468 mmHg 92%
    23:00 -14°C° 0.1 mm 2 m/S 468 mmHg 93%

    25 Januar, Samstag

    Zeit Temperatur Niederschläge Wind Luftdruck Luftfeuchtigkeit
    00:00 -14°C° 0.1 mm 2 m/S 467 mmHg 94%
    01:00 -15°C° 0.1 mm 2 m/S 466 mmHg 94%
    02:00 -16°C° 0.1 mm 2 m/S 465 mmHg 94%
    03:00 -14°C° 0.1 mm 1 m/S 465 mmHg 95%
    04:00 -15°C° 0.1 mm 1 m/S 464 mmHg 96%
    05:00 -15°C° 0.1 mm 1 m/S 464 mmHg 97%
    06:00 -16°C° 0 mm 1 m/S 464 mmHg 96%
    07:00 -16°C° 0 mm 1 m/S 463 mmHg 95%
    08:00 -17°C° 0 mm 1 m/S 463 mmHg 94%
    09:00 -15°C° 0 mm 1 m/S 464 mmHg 88%
    10:00 -13°C° 0 mm 1 m/S 465 mmHg 83%
    11:00 -11°C° 0 mm 1 m/S 467 mmHg 77%
    12:00 -10°C° 0 mm 1 m/S 467 mmHg 75%
    13:00 -9°C° 0 mm 1 m/S 467 mmHg 73%
    14:00 -9°C° 0 mm 1 m/S 467 mmHg 70%
    15:00 -10°C° 0 mm 1 m/S 466 mmHg 77%
    16:00 -12°C° 0 mm 1 m/S 465 mmHg 83%
    17:00 -14°C° 0 mm 1 m/S 463 mmHg 89%
    18:00 -15°C° 0 mm 1 m/S 463 mmHg 89%
    19:00 -16°C° 0 mm 1 m/S 462 mmHg 89%
    20:00 -18°C° 0 mm 1 m/S 462 mmHg 89%
    21:00 -18°C° 0 mm 1 m/S 461 mmHg 87%
    22:00 -21°C° 0 mm 2 m/S 461 mmHg 84%
    23:00 -21°C° 0 mm 2 m/S 461 mmHg 82%

    26 Januar, Sonntag

    Zeit Temperatur Niederschläge Wind Luftdruck Luftfeuchtigkeit
    00:00 -21°C° 0 mm 2 m/S 461 mmHg 83%
    01:00 -23°C° 0 mm 2 m/S 460 mmHg 84%
    02:00 -23°C° 0 mm 2 m/S 460 mmHg 85%
    03:00 -24°C° 0 mm 2 m/S 460 mmHg 85%
    04:00 -24°C° 0 mm 2 m/S 459 mmHg 85%
    05:00 -21°C° 0 mm 1 m/S 459 mmHg 85%
    06:00 -21°C° 0 mm 1 m/S 459 mmHg 84%
    07:00 -21°C° 0 mm 1 m/S 460 mmHg 82%
    08:00 -21°C° 0 mm 1 m/S 460 mmHg 81%
    09:00 -18°C° 0 mm 1 m/S 462 mmHg 77%
    10:00 -16°C° 0 mm 1 m/S 464 mmHg 74%
    11:00 -14°C° 0 mm 1 m/S 465 mmHg 71%
    12:00 -13°C° 0 mm 1 m/S 465 mmHg 72%
    13:00 -12°C° 0 mm 1 m/S 466 mmHg 74%
    14:00 -12°C° 0 mm 1 m/S 466 mmHg 75%
    15:00 -13°C° 0.1 mm 1 m/S 465 mmHg 81%
    16:00 -14°C° 0.1 mm 1 m/S 464 mmHg 88%
    17:00 -15°C° 0.1 mm 1 m/S 463 mmHg 94%
    18:00 -17°C° 0.1 mm 1 m/S 463 mmHg 95%
    19:00 -18°C° 0.1 mm 1 m/S 462 mmHg 96%
    20:00 -19°C° 0.1 mm 0 m/S 461 mmHg 97%
    21:00 -20°C° 0 mm 1 m/S 461 mmHg 96%
    22:00 -21°C° 0 mm 1 m/S 460 mmHg 96%
    23:00 -21°C° 0 mm 1 m/S 460 mmHg 95%
    Mehr zeigen